BEIDOU-2 IGSO-5

Last updated on Fri Jul 11 2025 00:02:43 GMT+0000 (Coordinated Universal Time)

1 37948U 11073A 25191.64150948 -.00000137 00000+0 00000+0 0 9998 2 37948 48.2999 275.7691 0109248 220.4463 119.2728 1.00283164 49701
UTC large
Height (km)
Speed (km/s)
/
Latitude / Longitude
Inclination (degrees)
Orbital Period (minutes)
Azimuth
Elevation
Range (km)
Doppler Factor

Next 0 passes for location: London (51.5072 / 0.1276)

Sorry there are no passes over London.